TimePST,TemperatureF,Dew PointF,Humidity,Sea Level PressureIn,VisibilityMPH,Wind Direction,Wind SpeedMPH,Gust SpeedMPH,PrecipitationIn,Events,Conditions,WindDirDegrees,DateUTC
12:53 AM,41.0,37.9,89,30.01,9.0,SE,5.8,-,N/A,,Overcast,130,2013-01-28 08:53:00
1:53 AM,41.0,37.9,89,30.03,9.0,ESE,4.6,-,N/A,,Overcast,120,2013-01-28 09:53:00
2:53 AM,41.0,37.0,86,30.04,10.0,SE,4.6,-,N/A,,Overcast,130,2013-01-28 10:53:00
3:37 AM,41.0,37.4,87,30.04,10.0,SE,8.1,-,N/A,,Scattered Clouds,130,2013-01-28 11:37:00
3:53 AM,39.9,36.0,86,30.04,10.0,SE,9.2,-,N/A,,Partly Cloudy,140,2013-01-28 11:53:00
4:53 AM,39.9,36.0,86,30.05,10.0,SE,8.1,-,N/A,,Clear,130,2013-01-28 12:53:00
5:53 AM,39.9,36.0,86,30.05,10.0,SE,5.8,-,N/A,,Partly Cloudy,130,2013-01-28 13:53:00
6:53 AM,39.9,37.0,89,30.06,10.0,SE,6.9,-,N/A,,Overcast,140,2013-01-28 14:53:00
7:53 AM,41.0,37.0,86,30.07,10.0,ESE,4.6,-,N/A,,Overcast,120,2013-01-28 15:53:00
9:53 AM,42.1,37.0,82,30.07,10.0,SSE,4.6,-,N/A,,Overcast,150,2013-01-28 17:53:00
10:53 AM,43.0,37.9,82,30.07,10.0,Calm,Calm,-,N/A,,Overcast,0,2013-01-28 18:53:00
11:53 AM,43.0,36.0,76,30.07,10.0,SSW,4.6,-,N/A,,Overcast,210,2013-01-28 19:53:00
12:53 PM,44.1,37.0,76,30.06,10.0,South,3.5,-,0.01,Rain,Light Rain,190,2013-01-28 20:53:00
1:37 PM,44.6,37.4,76,30.05,10.0,SSE,4.6,-,0.01,Rain,Light Rain,150,2013-01-28 21:37:00
1:53 PM,44.1,39.0,82,30.04,10.0,SE,4.6,-,0.01,Rain,Light Rain,140,2013-01-28 21:53:00
2:53 PM,45.0,39.0,80,30.02,10.0,South,4.6,-,0.03,Rain,Light Rain,190,2013-01-28 22:53:00
3:53 PM,45.0,39.9,82,30.03,8.0,SSE,4.6,-,0.02,Rain,Light Rain,160,2013-01-28 23:53:00
4:53 PM,45.0,39.9,82,30.03,10.0,Variable,3.5,-,0.03,Rain,Light Rain,0,2013-01-29 00:53:00
5:53 PM,44.1,39.0,82,30.04,10.0,SE,4.6,-,0.02,Rain,Light Rain,130,2013-01-29 01:53:00
6:53 PM,44.1,39.9,85,30.04,10.0,SSE,6.9,-,0.03,Rain,Light Rain,150,2013-01-29 02:53:00
7:53 PM,44.1,39.0,82,30.05,10.0,SE,8.1,-,0.00,Rain,Light Rain,140,2013-01-29 03:53:00
8:53 PM,44.1,39.0,82,30.06,10.0,SSE,6.9,-,0.02,Rain,Light Rain,160,2013-01-29 04:53:00
9:53 PM,44.1,39.0,82,30.06,10.0,SE,5.8,-,0.01,Rain,Light Rain,140,2013-01-29 05:53:00
10:53 PM,43.0,39.9,89,30.08,10.0,SE,6.9,-,0.01,Rain,Light Rain,140,2013-01-29 06:53:00
11:53 PM,43.0,39.9,89,30.10,10.0,SE,9.2,-,0.02,Rain,Light Rain,130,2013-01-29 07:53:00